STARLINK-33619, 63324

Orbit data source: Space-Track

STARLINK-33619, 63324 is a payload satellite owned by SpaceX/Seattle (US) in LEO that was launched on Tue, 18 Mar 2025 UTC via an FALCON 9 launch vehicle from the Air Force Eastern Test Range (AFETR). Payload-class satellites include a variety of spacecraft equipped with specific instruments for various scientific and technological missions. These include communications satellites like Starlink; space stations such as the ISS; scientific satellites like the Hubble; Earth observation satellites from companies like Planet Labs, Umbra, and HawkEye 360; GPS; miniature CubeSats for education and research; and military/defense satellites.

Loading next visibility...
Identifier
63324, 2025-057T
Orbit
LEO
Country
Flag of USUS
Related business
Manufacturer
SpaceX/Seattle
Mission
Operational Commercial Communications
Bus & Motor
STARLINK V2MO, Unknown motor
Mass
575 kg wet, ~530 kg dry
Launch date (UTC)
2025-03-18 (6 months ago)
Launch vehicle
FALCON 9
Launch site
Air Force Eastern Test Range (AFETR)
Object type
Payload
Rocket body
Debris
Shape & HBR
Box + 1 Pan, 14.5 m
Radar Cross Section
41.120 m², Large (>1 m²)

Expand to show TLE details & history
Last TLE update: 2 days ago

TLE from 2 days ago
0 STARLINK-33619
1 63324U 25057T   25260.55344446  .00014080  00000-0  52036-3 0  9999
2 63324  43.0029 288.1801 0001805 256.6328 103.4323 15.27570653 29303
Epoch: 2025-09-17T13:16Z
TLE epoch observation values (Epoch: 2025-09-17T13:16:57.601Z)
Latitude
0.00002°
Longitude
92.21238°
Altitude
483.141 km
Speed
7.625 km/s
True Right ascension
19h 12m 43s
True Declination
0° 00' 00"
Sunlit
Object was in full shadow at epoch
Visualization orbit readout
Latitude
Unknown
Longitude
Unknown
Altitude
Unknown
Speed
Unknown
Apparent Right ascension
Unknown
Apparent Declination
Unknown
Sunlit
N/A
Visualization observer readout
Local Sidereal Time
20:01:49
Azimuth
Unknown
Elevation
Unknown
Doppler factor
Unknown
Orbital elements
Apogee altitude
486.261 km
Perigee altitude
483.783 km
Semi-major axis
6,863.159 km
Eccentricity
0.00018
Inclination
43.0029°
RAAN
288.1801°
Arg. of periapsis
256.6328°
True anomaly
103.45242°
Mean anomaly
103.4323°
Eccentric anomaly
103.44236°
Mean motion
3.81731 °/min
Orbital period
94.31 mins
BSTAR
0.00052036
Loading maneuver chart data...
Computing Atmospheric mass density...
Loading historical data...
Loading historical data...
Loading historical data...
Loading historical data...
Loading historical data...
Loading historical data...
Loading historical data...

Documentation

Showing up to 5 results
|